Torna al catalogo

STARLINK-33953

AttivoComunicazioniVLEO
NORAD 64028·PAYLOAD·🇺🇸 United States

Lanciato May 16, 2025 da Vandenberg Space Force Base

Loading…

Prossimi Passaggi (prossime 24 ore)

TLE

AggiornatoSource: CelesTrak SupGP

Epoca: Sep 14, 2026, 20:37 UTC

1 64028C 25102G   26257.85951389 -.00022643  00000+0 -78776-3 0  2573
2 64028  70.0008 355.9269 0003354 275.3622 209.5685 15.29586920    11

Traccia STARLINK-33953 in tempo reale con AllMySat

Download on the App Store